Hourly Data Report for September 01, 2010

IQALUIT CLIMATE
NUNAVUT

63°44'50.000" N
68°32'40.000" W
33.50 m
2402592
71321
XFB

Download Data

Hourly Data (September 2010)
Hourly Data Report for September 1, 2010
TIME
LST
Temp Definition
°C
Dew Point Definition
°C
Rel Hum Definition
%
Precip. Amount Definition
mm

Wind Dir Definition
10's deg

Wind Spd Definition
km/h
Visibility Definition
km
Stn Press Definition
kPa
Hmdx Definition


Wind Chill Definition


Weather Definition


00:00 4.2 3.4 95   31 13   100.77     LegendNANA
01:00 3.4 2.6 94   34 9   100.78     LegendNANA
02:00 4.1 3.1 93   34 13   100.77     LegendNANA
03:00 4.1 3.4 95   32 15   100.78     LegendNANA
04:00 3.6 3.1 97   33 15   100.79     LegendNANA
05:00 4.5 3.2 91   33 11   100.78     LegendNANA
06:00 5.6 4.1 90   32 9   100.78     LegendNANA
07:00 6.5 4.8 89   32 6   100.78     LegendNANA
08:00 9.3 5.3 76   7 9   100.76     LegendNANA
09:00 9.1 5.7 79   26 9   100.77     LegendNANA
10:00 10.0 5.8 75   15 6   100.72     LegendNANA
11:00 9.7 5.4 75   20 7   100.68     LegendNANA
12:00 9.7 5.2 74   15 7   100.65     LegendNANA
13:00 9.8 5.2 73   15 9   100.60     LegendNANA
14:00 10.0 5.0 71   14 9   100.56     LegendNANA
15:00 8.4 4.7 78   12 6   100.50     LegendNANA
16:00 8.9 4.8 75   12 6   100.51     LegendNANA
17:00 8.6 4.5 75   16 7   100.51     LegendNANA
18:00 7.7 4.1 78   15 7   100.47     LegendNANA
19:00 8.3 3.9 74   17 4   100.45     LegendNANA
20:00 6.1 3.7 85   25 6   100.44     LegendNANA
21:00 5.3 3.7 89     0   100.40     LegendNANA
22:00 4.6 3.4 92     0   100.34     LegendNANA
23:00 4.5 3.3 92     0   100.32     LegendNANA

Notes on Data Quality.

Legend

  • E = Estimated
  • M = Missing
  • NA = Not Available*
  • [empty] = Indicates an unobserved value
Date modified: